This is the latest recevied weather packets stored in our database for station/object ALTO-WX. If no packets are shown the sender has not sent any weather packets the latest 10 day(s).
| Time | Temp. | Humidity | Pressure | Rain* | Wind** | Luminosity | Snow |
|---|---|---|---|---|---|---|---|
| 1777978871 | 10° C | 64% | 972.3 hPa | 0 mm | - | - | - |
| 1777977935 | 10.56° C | 49% | 970.9 hPa | 0 mm | - | - | - |
| 1777977054 | 10.56° C | 49% | 970.9 hPa | 0 mm | - | - | - |
| 1777976135 | 11.11° C | 49% | 970.9 hPa | 0 mm | - | - | - |
| 1777975269 | 11.11° C | 49% | 970.9 hPa | 0 mm | - | - | - |
| 1777974335 | 11.11° C | 50% | 971.2 hPa | 0 mm | - | - | - |
| 1777973458 | 11.67° C | 49% | 970.7 hPa | 0 mm | - | - | - |
| 1777972536 | 11.67° C | 49% | 970.7 hPa | 0 mm | - | - | - |
| 1777971673 | 11.67° C | 49% | 970.7 hPa | 0 mm | - | - | - |
| 1777970734 | 12.22° C | 66% | 971.2 hPa | 0 mm | - | - | - |
| 1777969854 | 11.67° C | 70% | 970.4 hPa | 0 mm | - | - | - |
| 1777968935 | 11.67° C | 70% | 970.4 hPa | 0 mm | - | - | - |
| 1777968066 | 12.22° C | 58% | 970.6 hPa | 0 mm | - | - | - |
| 1777967136 | 12.22° C | 71% | 969.8 hPa | 0 mm | - | - | - |
| 1777966256 | 12.78° C | 71% | 969.8 hPa | 0 mm | - | - | - |
| 1777965336 | 13.33° C | 71% | 969.9 hPa | 0 mm | - | - | - |
| 1777964467 | 13.89° C | 71% | 969.9 hPa | 0 mm | - | - | - |
| 1777963535 | 13.33° C | 63% | 970.4 hPa | 0 mm | - | - | - |
| 1777962652 | 13.89° C | 75% | 969.8 hPa | 0 mm | - | - | - |
| 1777961736 | 13.89° C | 75% | 969.8 hPa | 0 mm | - | - | - |
| 1777960874 | 14.44° C | 75% | 969.8 hPa | 0 mm | - | - | - |
| 1777959936 | 14.44° C | 70% | 971.1 hPa | 0 mm | - | - | - |
| 1777959059 | 15° C | 62% | 969.6 hPa | 0 mm | - | - | - |
| 1777958135 | 15.56° C | 62% | 969.6 hPa | 0 mm | - | - | - |
| 1777957264 | 16.11° C | 62% | 969.6 hPa | 0 mm | - | - | - |
* Rain latest hour (hover to see other rain measurements)
** Current wind speed in m/s (hover to see current wind gust speed)